EHI
0 0 0 0 0 0 0 0 1 8 27 50 49 24 6 1 0 0 0 0 0 0 0 0 0 0 0 0 0 0 0 0 0 0 0 0 0 0 0 0 1 2 4
0 0 0 0 0 0 1 2 6 21 50 71 58 25 5 1 0 0 0 0 0 0 0 0 0 0 0 0 0 0 0 0 0 0 0 0 0 0 0 0 0 1 1
0 0 0 0 0 1 3 8 14 34 66 81 62 26 6 1 0 0 0 0 0 0 0 0 0 0 0 0 0 0 0 1 0 0 0 0 0 0 0 0 0 0 0
0 0 0 0 0 1 4 9 16 30 51 66 60 37 19 8 2 0 0 0 0 0 0 0 0 0 0 0 0 0 0 0 0 0 0 0 0 0 0 0 0 0 0
0 0 0 0 0 0 2 4 9 15 27 42 47 41 30 17 5 0 0 0 0 0 0 0 0 0 0 0 0 0 0 0 0 0 0 0 0 0 0 0 0 0 0
0 0 0 0 0 0 0 0 2 4 12 20 21 21 21 14 5 1 0 0 0 0 0 0 0 0 0 0 0 0 0 0 0 0 0 0 0 0 0 0 0 0 0
0 0 0 0 0 0 0 0 0 0 3 5 3 3 5 5 3 1 0 0 0 0 0 0 0 0 0 0 0 0 0 0 0 0 0 0 0 0 0 0 0 0 0
0 0 0 0 0 0 0 0 0 0 0 0 0 0 0 1 1 1 0 0 0 0 0 0 0 0 0 0 0 0 0 0 0 0 0 0 0 0 0 0 0 0 0
0 0 0 0 0 0 0 0 0 0 0 0 0 0 0 0 0 0 0 0 0 0 0 0 0 0 0 0 0 0 0 0 0 0 0 0 0 0 0 0 0 0 0
0 0 0 0 0 0 0 0 0 0 0 0 0 0 0 0 0 0 0 0 0 0 0 0 0 0 0 0 0 0 0 0 0 0 0 0 0 0 0 0 0 0 0
0 0 0 0 0 0 0 0 0 0 0 0 0 0 0 0 0 0 0 0 0 0 0 0 0 0 0 0 0 0 0 0 0 0 0 0 0 0 0 0 0 0 0
0 0 0 0 0 0 0 0 0 0 0 0 0 0 0 0 0 0 0 0 0 0 0 0 0 0 0 0 0 0 0 0 0 0 0 0 0 0 0 0 0 0 0
0 0 0 0 0 0 0 0 0 0 0 0 0 0 0 0 0 0 0 0 0 0 0 0 0 0 0 0 0 0 0 0 0 0 0 0 0 0 0 0 0 0 0
0 0 0 0 0 0 0 0 0 0 0 0 0 0 0 0 0 0 0 0 0 0 0 0 0 0 0 0 0 0 0 0 0 0 0 0 0 0 0 0 0 0 0
0 0 0 0 0 0 0 0 0 0 0 0 0 0 0 0 0 0 0 0 0 0 0 0 0 0 0 0 0 0 0 0 0 0 0 0 0 0 0 0 0 0 0
0 0 0 0 0 0 0 0 0 0 0 0 0 0 0 0 0 0 0 0 0 0 0 0 0 0 0 0 0 0 0 0 0 0 0 0 0 0 0 0 0 0 0
0 0 0 0 0 0 0 0 0 0 0 0 0 0 0 0 0 0 0 0 0 0 0 0 0 0 0 0 0 0 0 0 0 0 0 0 0 0 0 0 0 0 0
0 0 0 0 0 0 0 0 0 0 0 0 0 0 0 0 0 0 0 0 0 0 0 0 0 0 0 0 0 0 0 0 0 0 0 0 0 0 0 0 0 0 0
0 0 0 0 0 0 0 0 0 0 0 0 0 0 0 0 0 0 0 0 0 0 0 0 0 0 0 0 0 0 0 0 0 0 0 0 0 0 0 0 0 0 0
0 0 0 0 0 0 0 0 0 0 0 0 0 0 0 0 0 0 0 0 0 0 0 0 0 0 0 0 0 0 0 0 0 0 0 0 0 0 0 0 0 0 0
0 0 0 0 0 0 0 0 0 0 0 0 0 0 0 0 0 0 0 0 0 0 0 0 0 0 0 0 0 0 0 0 0 0 0 0 0 0 0 0 0 0 0
0 0 0 0 0 0 0 0 0 0 0 0 0 0 0 0 0 0 0 0 0 0 0 0 0 0 0 0 0 0 0 0 0 0 0 0 0 0 0 0 0 0 0
0 0 0 0 0 0 0 0 0 0 0 0 0 0 0 0 0 0 0 0 0 0 0 0 0 0 0 0 0 0 0 0 0 0 0 0 0 0 0 0 0 0 0
0 0 0 0 0 0 0 0 0 0 0 0 0 0 0 0 0 0 0 0 0 0 0 0 0 0 0 0 0 0 0 0 0 0 0 0 0 0 0 0 0 0 0
0 0 0 0 0 0 0 0 0 0 0 0 0 0 0 0 0 0 0 0 0 0 0 0 0 0 0 0 0 0 0 0 0 0 0 0 0 0 0 0 0 0 0
0 0 0 0 0 0 0 0 0 0 0 0 0 0 0 0 0 0 0 0 0 0 0 0 0 0 0 0 0 0 0 0 0 0 0 0 0 0 0 0 0 0 0
Wind_Speed
5 4 4 4 5 4 5 6 7 9 9 8 4 5 6 7 8 8 5 8 9 9 9 10 9 8 8 7 7 7 8 10 10 11 11 9 7 5 4 6 9 10 11
5 4 5 4 4 5 5 6 7 7 7 4 5 5 6 7 8 9 7 7 9 8 8 9 9 9 9 9 9 8 8 10 11 11 12 10 8 5 6 8 10 11 13
6 6 5 5 5 5 6 5 5 4 3 4 5 7 6 7 7 8 7 6 7 9 8 9 10 10 10 10 10 9 9 8 10 10 11 10 8 7 9 10 11 12 13
7 6 5 5 6 6 5 5 5 5 5 5 5 6 6 7 9 8 8 7 6 6 8 10 11 11 12 11 11 11 10 9 9 10 11 10 8 9 10 11 12 13 14
7 6 5 5 6 6 6 6 6 6 6 6 6 6 6 7 7 7 9 9 7 6 6 5 8 10 12 12 12 13 12 12 10 10 10 9 9 10 11 13 13 13 14
5 4 3 4 4 4 4 4 5 4 4 5 7 7 6 5 4 3 6 6 6 6 6 6 5 6 9 10 11 13 14 13 13 10 9 9 10 11 12 12 13 14 15
4 4 3 2 2 2 3 4 4 4 2 2 4 5 5 4 4 3 4 5 5 4 4 4 4 4 3 5 8 10 13 15 16 13 10 10 11 12 14 13 13 15 16
3 2 4 3 3 2 3 4 5 4 3 3 3 3 5 5 4 3 4 3 2 2 1 0 2 3 4 5 2 5 11 14 17 17 14 11 13 13 15 15 16 17 17
4 4 4 4 4 4 3 4 4 5 4 3 2 3 4 5 5 5 4 3 2 1 1 2 3 3 4 5 5 4 6 11 14 17 17 16 15 15 16 16 17 18 19
4 4 4 4 4 4 5 4 4 3 4 3 2 2 2 1 3 4 4 2 1 1 1 2 3 3 4 4 4 7 7 10 12 15 17 18 18 18 18 17 18 20 20
4 4 3 3 4 4 5 5 4 5 4 4 4 3 3 3 3 3 4 3 3 2 2 3 3 3 4 4 4 5 6 10 12 12 14 16 18 19 20 18 18 20 21
4 4 3 3 4 4 4 4 5 6 5 5 5 4 4 4 5 5 5 5 4 3 3 3 4 3 4 5 5 4 8 11 11 11 12 13 14 17 19 18 16 19 22
5 4 2 3 4 4 4 4 5 6 7 8 7 6 6 6 4 5 5 4 5 4 4 5 4 4 4 5 4 5 7 8 10 11 11 11 10 12 15 18 19 19 21
2 1 1 3 4 4 4 5 5 6 6 7 8 8 6 7 6 6 6 6 6 6 6 7 5 5 4 4 4 6 7 4 7 10 10 9 9 9 11 14 18 19 18
2 0 2 3 4 5 5 5 5 6 6 7 7 7 7 6 6 7 7 7 8 8 8 7 5 5 4 5 4 7 8 4 8 11 11 11 10 8 8 10 13 16 17
3 1 3 5 6 6 7 6 6 6 7 7 5 7 7 6 6 6 7 8 9 9 9 7 6 5 5 5 4 7 7 5 8 8 10 10 10 9 9 10 11 13 16
3 2 3 5 6 7 7 7 8 8 8 8 7 7 8 8 6 6 7 8 9 9 10 9 6 5 7 7 5 5 6 7 6 4 8 11 11 10 11 11 11 13 15
2 2 2 4 5 6 6 7 8 7 7 6 6 6 7 6 8 7 7 9 9 9 10 11 8 5 7 6 6 6 5 5 7 6 7 10 10 10 10 11 11 12 13
3 2 1 2 3 4 4 4 3 2 2 3 4 4 5 5 6 6 7 7 6 6 7 8 8 4 4 5 6 6 7 6 7 7 8 9 10 10 11 12 12 12 12
4 4 4 5 5 6 7 7 7 7 7 8 8 9 9 9 7 5 2 2 2 4 5 5 5 4 3 4 6 7 7 6 7 8 9 10 11 11 13 13 13 12 12
5 5 6 6 6 6 7 8 7 8 8 8 8 8 9 10 12 9 6 5 4 2 1 1 1 2 3 4 5 6 8 8 9 8 7 7 8 8 8 8 8 10 12
5 6 7 8 9 7 11 12 8 7 7 7 6 6 6 8 10 12 12 11 8 5 3 1 1 3 4 5 5 6 7 8 8 6 9 9 9 9 9 9 9 11 14
6 6 7 7 8 10 12 11 10 6 6 5 5 5 4 4 6 5 7 6 5 6 6 4 4 4 5 6 7 8 8 9 10 9 10 12 10 11 10 10 11 13 15
6 7 7 7 7 9 10 8 6 5 5 5 5 6 6 6 7 8 6 5 4 4 6 6 6 6 6 8 9 10 11 11 11 9 10 11 11 11 10 10 11 12 14
6 6 5 6 6 7 9 7 5 3 3 4 4 6 6 6 9 11 8 6 6 5 3 6 9 9 10 10 9 8 8 8 9 8 8 9 10 11 11 11 12 13 14
4 4 4 5 5 6 8 7 5 3 3 3 3 4 6 9 11 11 8 6 6 7 7 8 8 7 6 6 7 7 7 7 8 7 6 8 9 9 8 8 8 8 9
Wind_Direction
245 240 244 243 249 249 244 243 239 235 236 235 214 207 210 212 223 220 196 189 214 226 237 244 246 253 265 276 277 272 268 273 283 288 291 289 284 280 241 184 166 157 153
249 246 245 238 242 242 247 245 244 245 234 205 197 202 211 215 224 218 217 190 208 226 239 244 250 260 273 282 291 295 293 278 276 279 283 282 268 245 208 183 174 168 164
241 236 237 232 230 232 235 235 244 247 242 207 205 201 203 213 227 225 215 215 201 203 223 243 255 263 270 277 288 298 307 299 286 280 280 279 258 236 213 199 192 189 185
231 234 238 237 231 229 220 212 206 200 203 205 209 206 200 202 215 226 227 218 224 221 212 221 243 254 261 268 276 285 299 301 292 285 279 273 253 233 219 212 208 202 197
222 229 242 248 235 234 231 215 205 202 195 196 202 206 204 205 206 213 226 227 225 234 250 213 228 252 262 267 270 276 284 293 292 286 280 266 251 236 225 218 215 211 207
209 222 229 234 235 230 234 220 204 206 203 203 208 206 206 201 191 217 239 231 225 233 250 264 256 236 238 261 273 277 278 282 286 278 272 266 251 237 232 225 220 218 215
200 210 212 199 213 205 191 184 181 181 172 202 216 210 200 194 190 196 224 228 210 216 235 252 261 280 263 236 254 277 285 284 283 279 265 259 254 241 236 230 222 221 221
164 191 209 201 201 195 187 181 181 175 167 193 216 196 191 181 177 174 176 175 171 157 167 305 301 295 294 295 301 280 285 288 283 279 273 259 254 248 240 234 228 224 223
163 172 194 199 200 203 195 190 195 197 183 178 223 222 212 205 160 161 145 143 113 82 47 16 338 314 304 294 298 283 293 298 291 284 279 271 260 254 247 238 233 229 225
188 177 191 205 205 206 199 196 205 210 198 194 198 247 266 225 197 170 176 175 135 326 340 323 309 308 301 299 299 292 291 298 299 294 288 281 271 261 254 245 237 234 230
200 193 197 210 220 219 211 211 210 214 217 211 202 195 202 208 229 216 208 213 226 233 285 295 291 294 311 301 296 323 316 302 302 302 301 298 290 279 267 254 243 237 234
191 185 197 209 221 227 225 228 227 226 230 231 226 217 210 202 199 204 218 225 240 254 286 294 293 304 318 313 313 336 302 298 298 301 303 303 304 298 288 277 260 246 239
195 186 222 240 240 241 246 245 242 238 237 238 236 233 232 235 222 218 230 242 253 262 277 279 280 295 308 312 324 6 299 292 298 302 300 296 300 306 303 291 281 268 255
186 151 282 285 283 278 268 256 253 247 245 242 244 242 237 235 233 234 237 244 249 248 246 260 274 277 291 304 334 306 295 289 303 306 300 292 289 293 303 299 286 276 266
127 38 324 307 298 292 286 278 263 258 258 255 255 251 245 242 236 234 237 242 248 254 250 255 261 277 294 301 313 299 300 350 319 306 304 302 294 286 297 305 295 279 266
118 35 336 314 301 293 287 281 277 272 267 262 262 260 252 247 240 232 234 238 242 251 257 254 251 264 290 288 297 300 306 311 271 285 306 312 309 301 296 292 295 294 278
83 45 338 311 302 297 290 280 273 274 271 270 265 264 263 259 255 246 239 237 236 239 248 252 251 261 271 276 289 301 307 307 304 285 298 304 304 305 304 298 293 291 290
90 58 341 314 314 308 298 286 279 275 273 275 283 282 277 274 263 257 248 241 238 236 242 252 248 247 262 276 291 300 307 305 302 306 298 294 289 289 291 293 293 288 286
104 94 60 22 11 357 349 343 330 351 32 29 23 8 344 309 280 264 253 248 241 234 237 248 252 248 264 279 297 297 297 300 303 303 297 290 285 277 275 279 286 287 287
98 91 76 71 67 58 51 45 44 52 55 50 46 43 31 21 8 353 342 326 251 219 216 231 245 253 276 300 302 302 305 306 302 303 298 294 288 278 269 272 279 285 291
90 93 82 70 63 65 60 57 55 52 49 49 46 39 32 25 27 31 42 39 33 42 70 220 255 290 286 305 314 323 309 311 301 294 299 307 312 308 298 283 276 285 296
110 99 82 70 58 55 65 61 56 57 52 48 43 33 26 23 22 26 35 41 38 37 28 360 291 285 300 312 313 306 307 303 300 312 314 307 307 300 297 293 294 288 287
101 89 79 74 66 53 55 60 49 44 44 38 27 16 16 20 16 18 19 18 26 33 14 331 302 305 315 312 310 302 295 291 288 297 302 296 296 291 289 283 275 270 274
82 78 71 64 60 46 40 54 48 27 25 23 17 4 353 356 4 357 348 342 337 355 357 340 344 333 332 330 317 305 297 290 286 282 282 286 292 291 296 295 286 268 264
80 79 69 55 48 40 26 24 20 358 358 2 4 9 356 351 3 353 336 334 326 329 346 341 332 321 315 308 308 300 293 292 292 294 293 287 293 294 291 286 282 270 260
88 88 69 45 32 29 21 18 17 359 355 352 356 18 27 7 2 359 351 344 331 337 335 329 323 321 317 315 310 301 306 301 300 297 297 300 303 312 304 300 307 311 294